TimeCST,TemperatureF,Dew PointF,Humidity,Sea Level PressureIn,VisibilityMPH,Wind Direction,Wind SpeedMPH,Gust SpeedMPH,PrecipitationIn,Events,Conditions,WindDirDegrees,DateUTC
12:55 AM,-1.8,-9.0,71,30.50,10.0,North,4.6,-,N/A,,Clear,350,2013-02-01 06:55:00
1:55 AM,0.1,-8.3,68,30.49,10.0,Calm,Calm,-,N/A,,Clear,0,2013-02-01 07:55:00
2:55 AM,-5.3,-10.3,79,30.48,10.0,Calm,Calm,-,N/A,,Clear,0,2013-02-01 08:55:00
3:55 AM,-2.6,-7.6,79,30.45,10.0,Calm,Calm,-,N/A,,Clear,0,2013-02-01 09:55:00
4:55 AM,0.7,-4.4,79,30.46,10.0,South,3.5,-,N/A,,Overcast,180,2013-02-01 10:55:00
5:55 AM,2.1,-4.7,73,30.44,10.0,South,6.9,-,N/A,,Overcast,190,2013-02-01 11:55:00
6:55 AM,3.2,-4.0,72,30.44,10.0,South,5.8,-,N/A,,Overcast,170,2013-02-01 12:55:00
7:55 AM,3.2,-2.2,78,30.45,10.0,SE,8.1,-,N/A,,Overcast,140,2013-02-01 13:55:00
8:55 AM,4.5,-3.1,71,30.42,10.0,ESE,9.2,-,N/A,,Clear,120,2013-02-01 14:55:00
9:55 AM,6.6,-2.9,65,30.40,10.0,SE,13.8,-,N/A,,Clear,130,2013-02-01 15:55:00
10:11 AM,6.8,-2.2,67,30.39,10.0,SE,11.5,-,N/A,,Mostly Cloudy,140,2013-02-01 16:11:00
10:34 AM,8.6,-2.2,62,30.38,10.0,SE,10.4,-,N/A,,Scattered Clouds,140,2013-02-01 16:34:00
10:55 AM,8.8,-1.1,64,30.36,10.0,SE,15.0,-,N/A,,Clear,130,2013-02-01 16:55:00
11:55 AM,12.0,2.3,65,30.32,10.0,SSE,12.7,-,N/A,,Overcast,160,2013-02-01 17:55:00
11:58 AM,12.2,3.2,67,30.37,10.0,SSE,15.0,-,N/A,,Overcast,150,2013-02-01 17:58:00
12:55 PM,16.2,7.2,68,30.27,10.0,South,10.4,-,N/A,,Mostly Cloudy,170,2013-02-01 18:55:00
2:55 PM,25.2,16.2,69,30.19,10.0,South,13.8,20.7,N/A,,Overcast,190,2013-02-01 20:55:00
3:55 PM,26.4,15.3,63,30.17,10.0,South,13.8,25.3,N/A,,Overcast,180,2013-02-01 21:55:00
4:55 PM,26.4,15.6,64,30.14,10.0,South,15.0,-,N/A,,Mostly Cloudy,180,2013-02-01 22:55:00
5:55 PM,26.1,17.1,69,30.14,10.0,South,11.5,-,N/A,,Overcast,180,2013-02-01 23:55:00
6:55 PM,25.9,16.9,69,30.15,10.0,South,9.2,-,N/A,,Mostly Cloudy,180,2013-02-02 00:55:00
7:55 PM,24.8,17.8,75,30.14,10.0,South,8.1,-,N/A,,Partly Cloudy,180,2013-02-02 01:55:00
8:55 PM,25.7,18.3,74,30.13,10.0,South,9.2,-,N/A,,Partly Cloudy,190,2013-02-02 02:55:00
9:55 PM,26.1,17.4,70,30.13,10.0,South,8.1,-,N/A,,Overcast,190,2013-02-02 03:55:00
10:49 PM,26.6,17.6,69,30.14,10.0,SSW,3.5,-,N/A,,Overcast,210,2013-02-02 04:49:00
10:55 PM,26.1,18.1,72,30.13,10.0,SSW,5.8,-,N/A,,Overcast,200,2013-02-02 04:55:00
10:58 PM,26.6,17.6,69,30.13,10.0,South,6.9,-,N/A,,Overcast,190,2013-02-02 04:58:00
11:00 PM,26.6,17.6,69,30.13,10.0,Calm,Calm,-,N/A,,Overcast,0,2013-02-02 05:00:00
11:30 PM,26.6,19.4,74,30.12,10.0,South,3.5,-,N/A,,Overcast,190,2013-02-02 05:30:00
11:55 PM,25.5,19.0,76,30.12,10.0,SW,3.5,-,N/A,,Mostly Cloudy,220,2013-02-02 05:55:00